This is the latest recevied weather packets stored in our database for station/object 9W2SSS-1. If no packets are shown the sender has not sent any weather packets the latest 10 day(s).
| Time | Temp. | Humidity | Pressure | Rain* | Wind** | Luminosity | Snow |
|---|---|---|---|---|---|---|---|
| 1777507391 | 35° C | 52% | 1009.1 hPa | - | - | - | - |
| 1777506191 | 31.11° C | 64% | 1009.1 hPa | - | - | - | - |
| 1777504991 | 30° C | 66% | 1009.1 hPa | - | - | - | - |
| 1777503791 | 29.44° C | 65% | 1008.8 hPa | - | - | - | - |
| 1777501391 | 28.33° C | 62% | 1008.6 hPa | - | - | - | - |
| 1777500191 | 28.89° C | 63% | 1008.4 hPa | - | - | - | - |
| 1777498991 | 28.89° C | 63% | 1008.3 hPa | - | - | - | - |
| 1777497791 | 29.44° C | 63% | 1008 hPa | - | - | - | - |
| 1777496591 | 30° C | 67% | 1008 hPa | - | - | - | - |
| 1777495391 | 30° C | 68% | 1007.8 hPa | - | - | - | - |
| 1777494191 | 30° C | 68% | 1008.2 hPa | - | - | - | - |
| 1777492991 | 30° C | 67% | 1008.1 hPa | - | - | - | - |
| 1777491791 | 30° C | 66% | 1008.2 hPa | - | - | - | - |
| 1777490591 | 30° C | 66% | 1008.1 hPa | - | - | - | - |
| 1777489391 | 30.56° C | 66% | 1008.3 hPa | - | - | - | - |
| 1777488191 | 30.56° C | 65% | 1008.5 hPa | - | - | - | - |
| 1777486991 | 30.56° C | 65% | 1008.9 hPa | - | - | - | - |
| 1777485791 | 30.56° C | 65% | 1009.1 hPa | - | - | - | - |
| 1777484591 | 30.56° C | 64% | 1009.2 hPa | - | - | - | - |
| 1777483390 | 30° C | 63% | 1009.4 hPa | - | - | - | - |
| 1777482190 | 30° C | 63% | 1009.6 hPa | - | - | - | - |
| 1777480990 | 30° C | 61% | 1009.7 hPa | - | - | - | - |
| 1777479790 | 30° C | 61% | 1009.6 hPa | - | - | - | - |
| 1777478590 | 30.56° C | 60% | 1009.6 hPa | - | - | - | - |
| 1777477390 | 31.11° C | 60% | 1009.7 hPa | - | - | - | - |
* Rain since midnight (hover to see other rain measurements)
** Current wind speed in m/s (hover to see current wind gust speed)